Location: Newark
(44.2003°N, 3.2583°E)
Time: 15:25:18
(UTC+00:00)

Explorer 7 - Pass Details

Date: 23 October 2019
Orbit: 485 x 680 km, 50.3° (Epoch: 12 November)

Event Time Altitude Azimuth Distance (km) Brightness Sun altitude
Rises 11:53:36 0° 271° (W) 2,550 10.3 34.2°
Reaches altitude 10° 11:55:54 10° 281° (W) 1,666 9.3 34.1°
Maximum altitude 11:59:23 36° 349° (N) 788 7.5 34.0°
Drops below altitude 10° 12:02:55 10° 58° (ENE) 1,689 9.1 33.9°
Sets 12:05:15 0° 67° (ENE) 2,590 10.0 33.9°
